Regional Weather Roundup
Issued by NWS Upton, NY

Current Version | Previous Version | Text Only | Print | Product List | Glossary On
Versions: 1 2 3 4 5 6 7 8 9 10 11 12 13 14 15 16 17 18 19 20 21 22 23 24 25 26 27 28 29 30 31 32 33 34 35 36 37 38 39 40 41 42 43 44 45 46 47 48 49 50
000 ASUS41 KOKX 050308 RWROKX REGIONAL WEATHER ROUNDUP NATIONAL WEATHER SERVICE NEW YORK NY 1100 PM EDT SAT JUL 04 2015 NOTE: "FAIR" INDICATES FEW OR NO CLOUDS BELOW 12,000 FEET WITH NO SIGNIFICANT WEATHER AND/OR OBSTRUCTIONS TO VISIBILITY. NYZ071-072-176-178-NJZ106-104-050400- NEW YORK CITY METRO AREA CITY SKY/WX TMP DP RH WIND PRES REMARKS CENTRAL PARK MOCLDY 72 53 51 CALM 30.04R LAGUARDIA APRT PTCLDY 72 58 61 S6 30.00R KENNEDY INTL MOCLDY 70 63 78 SE3 30.02R NEWARK/LIBERTY MOCLDY 72 58 61 W8 30.01R BRNX BOT. GARD N/A 66 54 63 NE1 30.02R TETERBORO PTCLDY 69 58 67 NW5 30.00R $$ NYZ177-179-078>081-050400- LONG ISLAND NEW YORK CITY SKY/WX TMP DP RH WIND PRES REMARKS FARMINGDALE PTCLDY 69 51 52 S3 30.01R ISLIP MOCLDY 65 53 65 CALM 30.00R SHIRLEY CLOUDY 64 56 75 CALM 30.01R HAZE WESTHAMPTON PTCLDY 58 55 90 CALM 30.02R MONTAUK POINT N/A 60 56 86 CALM 30.01S $$ NYZ052-065-067-050400- HUDSON VALLEY CITY SKY/WX TMP DP RH WIND PRES REMARKS WHITE PLAINS CLEAR 64 60 87 CALM 30.01R NEWBURGH CLEAR 61 61 100 CALM 30.03R MONTGOMERY CLEAR 60 59 96 CALM 30.02R FOG POUGHKEEPSIE CLEAR 60 58 92 CALM 30.01R FOG ALBANY PTCLDY 62 59 90 SE3 30.01R $$ NJZ001-105-106-008-010-013-015-019>022-104-050400- NEW JERSEY CITY SKY/WX TMP DP RH WIND PRES REMARKS NEWARK/LIBERTY MOCLDY 72 58 61 W8 30.01R TETERBORO PTCLDY 69 58 67 NW5 30.00R CALDWELL PTCLDY 66 59 78 CALM 30.02R MORRISTOWN MOCLDY 64 61 88 CALM 30.02R SOMERVILLE CLOUDY 68 60 75 CALM 30.00R SUSSEX CLOUDY 61 59 93 CALM 30.03R ANDOVER N/A 61 59 93 CALM 30.04R TRENTON CLOUDY 69 57 65 NW5 30.02R MILLVILLE MOCLDY 70 61 73 NE6 30.00F ATLANTIC CITY CLOUDY 70 60 70 NE5 30.01S WRIGHTSTOWN CLOUDY 68 57 69 SE3 29.99R TOMS RIVER CLOUDY 70 57 64 CALM 30.02S BELMAR CLOUDY 70 55 60 CALM 30.01S $$ PAZ047>061-062-071-050400- EASTERN PENNSYLVANIA CITY SKY/WX TMP DP RH WIND PRES REMARKS PHILADELPHIA CLOUDY 70 58 65 NE6 30.02R ALLENTOWN CLOUDY 67 64 90 CALM 30.03R FOG SCRANTON PTCLDY 63 60 90 CALM 30.04R FOG $$ CTZ002-004>006-009-010-012-RIZ004-006-007-MAZ004-011-015-050400- SOUTHERN NEW ENGLAND IN CT CITY SKY/WX TMP DP RH WIND PRES REMARKS BRADLEY INTL CLEAR 60 57 89 CALM 30.00R HARTFORD CLEAR 61 59 93 MISG 30.00R DANBURY CLEAR 59 55 87 CALM 30.03R FOG WTRBRY/OXFORD CLEAR 59 52 77 CALM 30.03S BRIDGEPORT CLEAR 67 60 78 CALM 30.01R HAZE MERIDEN CLEAR 60 57 89 CALM 30.01R FOG NEW HAVEN CLEAR 60 54 80 CALM 30.01R HAZE CHESTER FAIR 63 57 82 CALM 30.02R GROTON CLEAR 60 56 86 CALM 29.99S FOG WILLIMANTIC CLEAR 62 59 90 CALM 30.01R IN RI CITY SKY/WX TMP DP RH WIND PRES REMARKS PROVIDENCE PTCLDY 66 60 81 NW5 29.99S HAZE BLOCK ISLAND CLEAR 63 52 67 W3 29.99S WESTERLY CLEAR 60 56 86 CALM 30.00S IN MA CITY SKY/WX TMP DP RH WIND PRES REMARKS BOSTON PTCLDY 65 57 75 CALM 29.99S WORCESTER CLEAR 61 55 81 W8 30.02R WESTFIELD FOG 58 57 97 CALM 30.01S VSB 1 PROVINCETOWN CLEAR 55 1 11 CALM 29.99S NANTUCKET CLEAR 61 57 87 NW7 29.97R $$ ANZ330-335-338-340-345-350-353-355-050400- COASTAL MARINE OBSERVATIONS STATION/POSITION TIME SKY/WX TEMP WIND PRES VSBY WAVE AIR SEA DIR/SP/G HT/PER (UTC) (F) (DEG/KT/KT) (MB) (MI) (FT/S) NY HARB ENTRANCE 0250 69 69 130/ 4/ 6 1015.7 2/ 8 4S FIRE IS 0203 70 N/A 3/ 8 20S FIRE ISLAND 0250 69 69 110/ 6/ 8 1015.7 3/ 8 GREAT SOUTH BAY NOT AVBL 23SW MTP 0250 67 68 350/ 2/ 2 1015.4 3/ 5 HUDSON CANYON NOT AVBL KINGS POINT 0200 69 67 CALM 1015.1 CENTRAL LI SOUND NOT AVBL EASTERN LI SOUND 0200 65 64 280/ 2/ 4 N/A ROBBINS REEF 0200 73 180/ 7/ 8 1014.7 $$ >>>>>>>>>>>>>>>>>>>>>>>>>>>> KEY <<<<<<<<<<<<<<<<<<<<<<<<<<< > < > SKY/WX - SKY CONDITION/PRESENT WEATHER < > TMP - TEMPERATURE IN FAHRENHEIT < > DP - DEWPOINT IN FAHRENHEIT < > RH - RELATIVE HUMIDITY IN PERCENT < > WIND - DIRECTION AND SPEED IN MPH < > PRES - MEAN SEA LEVEL PRESSURE IN INCHES OF HG < > WCI - WIND CHILL INDEX < > VSB - VISIBILITY IN MILES < > HX - HEAT INDEX < > TC - TEMPERATURE IN CELSIUS < > VRB - VARIABLE WIND DIRECTION < > < >>>>>>>>>>>>>>>>>>>>>>>>>>>> KEY <<<<<<<<<<<<<<<<<<<<<<<<<<<

USA.gov is the U.S. government's official web portal to all federal, state and local government web resources and services.